www.pogodaiklimat.ru
ПОГОДА в Хиве

Архив погоды в Хиве (Хорезмская область, Узбекистан)

Время
и дата
03:20 17.04
03:30 17.04
03:40 17.04
03:50 17.04
04:00 17.04
04:30 17.04
04:40 17.04
04:50 17.04
05:00 17.04
05:10 17.04
05:20 17.04
05:30 17.04
05:40 17.04
05:50 17.04
06:00 17.04
06:10 17.04
06:20 17.04
06:30 17.04
06:40 17.04
06:50 17.04
07:00 17.04
07:10 17.04
07:20 17.04
08:30 17.04
08:50 17.04
10:40 17.04
16:10 17.04
16:40 17.04
16:50 17.04
17:00 17.04
17:20 17.04
17:30 17.04
17:40 17.04
17:50 17.04
18:00 17.04
18:10 17.04
18:20 17.04
18:30 17.04
18:40 17.04
18:50 17.04
19:00 17.04
19:10 17.04
19:20 17.04
19:30 17.04
19:40 17.04
19:50 17.04
20:00 17.04
20:10 17.04
20:30 17.04
20:40 17.04
20:50 17.04
21:00 17.04
21:10 17.04
21:20 17.04
21:30 17.04
21:40 17.04
21:50 17.04
22:00 17.04
22:10 17.04
22:20 17.04
22:30 17.04
22:40 17.04
22:50 17.04
23:00 17.04
23:10 17.04
23:20 17.04
23:30 17.04
23:40 17.04
23:50 17.04
00:00 18.04
00:10 18.04
00:20 18.04
00:40 18.04
00:50 18.04
01:00 18.04
01:10 18.04
01:20 18.04
01:30 18.04
01:40 18.04
01:50 18.04
02:00 18.04
02:10 18.04
02:20 18.04
02:30 18.04
02:40 18.04
02:50 18.04
03:00 18.04
03:10 18.04
03:20 18.04
03:30 18.04
03:40 18.04
03:50 18.04
04:00 18.04
04:10 18.04
04:20 18.04
04:30 18.04
04:40 18.04
04:50 18.04
05:00 18.04
05:40 18.04
05:50 18.04
06:00 18.04
06:10 18.04
06:20 18.04
06:30 18.04
06:40 18.04
06:50 18.04
07:00 18.04
07:10 18.04
07:20 18.04
07:40 18.04
07:50 18.04
08:00 18.04
08:20 18.04
10:50 18.04
11:30 18.04
12:10 20.04
12:20 20.04
12:30 20.04
12:40 20.04
12:50 20.04
13:00 20.04
13:10 20.04
13:30 20.04
13:40 20.04
14:00 20.04
14:20 20.04
14:30 20.04
14:40 20.04
15:00 20.04
15:10 20.04
15:20 20.04
15:40 20.04
15:50 20.04
16:00 20.04
16:10 20.04
16:20 20.04
16:30 20.04
16:40 20.04
16:50 20.04
17:10 20.04
17:20 20.04
17:30 20.04
17:40 20.04
Ветер
(напр.,м/с)
Видимость Явления Солнечная радиация
(Вт/м2)
Т
(С)
Тd
(С)
f
(%)
Тe
(С)
Тes
(С)
Комфортность P
(гПа)
Po
(гПа)
Тmin
(С)
Tmax
(С)
R
(мм)
СВ 2.5
{3.4}
+15.9 +8.5 62 +16 +16 1021.4 1009.3 +15.9 +15.9
В 2.4
{3.3}
+15.7 +8.2 61 +16 +16 1021.5 1009.4 +15.9 +15.7
В 2.3
{3.2}
+15.8 +8.1 60 +16 +16 1021.5 1009.4 +15.8 +15.7
В 1.8
{2.9}
+15.5 +7.9 61 +16 +16 1021.6 1009.5 +15.8 +15.5
В 2.1
{3.2}
+15.5 +7.7 60 +15 +15 1021.5 1009.4 +15.6 +15.4
В 3.6
{5.1}
+16.6 +7.4 54 +16 +16 1021.5 1009.4 +16.6 +16.2
В 3.5
{5.2}
+16.6 +7.4 55 +16 +16 1021.6 1009.5 +16.7 +16.6
В 3.0
{4.6}
+16.1 +7.4 56 +16 +16 1021.6 1009.5 +16.6 +16.1
В 3.0
{4.2}
+16.1 +7.4 56 +16 +16 1021.5 1009.4 +16.2 +16.1
В 3.0
{4.4}
+16.0 +7.5 57 +16 +16 1021.6 1009.5 +16.2 +16.0
В 2.8
{3.6}
+15.9 +7.7 58 +16 +16 1021.6 1009.5 +16.0 +15.9
В 2.6
{3.4}
+15.7 +7.9 60 +15 +15 1021.7 1009.6 +15.9 +15.7
В 1.8
{2.6}
+15.2 +7.9 61 +15 +15 1021.7 1009.6 +15.7 +15.2
В 2.2
{3.5}
+15.3 +8.1 62 +15 +15 1021.6 1009.5 +15.3 +15.2
В 3.1
{4.2}
+15.5 +7.5 59 +15 +15 1021.7 1009.6 +15.6 +15.3
В 2.9
{3.8}
+15.4 +7.4 59 +15 +15 1021.7 1009.6 +15.6 +15.4
В 2.6
{3.6}
1.2 +15.3 +7.2 58 +15 +15 1021.8 1009.7 +15.4 +15.3
В 2.3
{3.4}
7.1 +15.2 +7.2 59 +15 +15 1021.9 1009.8 +15.3 +15.2
В 2.6
{3.9}
16.7 +15.7 +7.1 57 +15 +15 1021.9 1009.8 +15.7 +15.2
В 2.8
{3.9}
31.1 +16.0 +6.9 55 +16 +17 1022.0 1009.9 +16.0 +15.7
В 2.6
{3.7}
50.0 +16.2 +7.0 54 +16 +17 1022.0 1009.9 +16.2 +16.0
В 2.7
{4.0}
69.9 +16.7 +6.9 52 +17 +18 1022.0 1009.9 +16.6 +16.2
В 2.9
{4.3}
92.7 +17.1 +7.1 52 +17 +19 1022.1 1010.0 +17.1 +16.7
В 3.0
{5.0}
266.0 +20.0 +9.5 51 +22 +27 комфорт 1022.2 1010.1 +20.0 +19.5
В 3.3
{4.7}
322.0 +21.0 +9.7 48 +23 +29 комфорт 1022.1 1010.0 +21.0 +20.4
В 4.5
{6.8}
565.6 +25.4 +9.0 35 +26 +35 жарко 1022.3 1010.2 +25.5 +25.1
В 3.5
{8.1}
472.1 +28.6 +3.8 20 +27 +35 жарко 1019.2 1007.1 +28.8 +28.0
В 3.8
{6.2}
397.3 +28.4 +3.4 20 +27 +34 жарко 1019.0 1006.9 +28.6 +28.1
В 3.5
{6.9}
371.3 +28.4 +4.0 21 +27 +34 жарко 1018.9 1006.8 +28.5 +28.1
СВ 3.1
{7.3}
345.8 +28.3 +4.2 21 +27 +33 жарко 1018.9 1006.8 +28.5 +28.1
В 3.9
{6.3}
293.0 +28.2 +3.7 21 +27 +32 жарко 1018.8 1006.7 +28.3 +28.1
СВ 3.1
{5.6}
270.0 +28.1 +3.6 21 +27 +32 жарко 1018.8 1006.7 +28.2 +28.0
В 3.7
{6.7}
240.8 +28.1 +3.6 21 +27 +31 жарко 1018.8 1006.7 +28.4 +28.1
СВ 2.7
{5.3}
215.4 +28.2 +3.9 21 +27 +31 жарко 1018.8 1006.7 +28.2 +28.0
В 3.9
{6.0}
193.0 +28.0 +3.0 20 +26 +29 жарко 1018.8 1006.7 +28.2 +28.0
В 3.7
{7.0}
169.5 +27.8 +3.1 20 +26 +29 жарко 1018.8 1006.7 +28.1 +27.8
В 3.6
{6.3}
144.0 +27.8 +2.6 20 +26 +29 жарко 1018.7 1006.6 +27.9 +27.8
В 3.0
{4.6}
118.8 +27.8 +2.6 20 +26 +28 жарко 1018.7 1006.6 +27.8 +27.7
В 3.3
{5.3}
97.1 +27.6 +2.7 20 +26 +28 жарко 1018.7 1006.6 +27.8 +27.6
В 2.6
{4.0}
75.8 +27.4 +2.8 20 +26 +27 жарко 1018.7 1006.6 +27.6 +27.4
СВ 2.0
{3.4}
57.1 +27.1 +4.1 23 +26 +27 жарко 1018.6 1006.5 +27.4 +27.1
СВ 1.8
{2.7}
39.2 +26.8 +4.7 24 +26 +27 жарко 1018.6 1006.5 +27.1 +26.8
СВ 1.4
{2.3}
23.4 +26.3 +5.3 26 +26 +27 жарко 1018.7 1006.6 +26.8 +26.3
СВ 1.5
{2.3}
11.2 +26.0 +5.0 26 +25 +25 комфорт 1018.7 1006.6 +26.3 +26.0
СВ 1.3
{2.1}
3.2 +25.5 +5.9 28 +25 +25 комфорт 1018.8 1006.7 +26.0 +25.5
СВ 1.3
{2.1}
+25.0 +6.1 30 +25 +25 комфорт 1018.8 1006.7 +25.5 +25.0
СВ 1.3
{1.9}
+24.4 +6.1 31 +24 +24 комфорт 1018.9 1006.8 +25.0 +24.4
СВ 1.6
{2.2}
+23.8 +6.6 33 +24 +24 комфорт 1019.0 1006.9 +24.4 +23.9
СВ 1.4
{1.8}
+22.9 +6.5 35 +24 +24 комфорт 1019.2 1007.1 +23.5 +23.0
СВ 1.5
{1.9}
+22.6 +7.2 37 +23 +23 комфорт 1019.3 1007.2 +22.9 +22.6
СВ 1.6
{2.4}
+22.5 +6.6 36 +23 +23 комфорт 1019.3 1007.2 +22.6 +22.4
СВ 1.8
{2.4}
+22.2 +6.9 37 +23 +23 комфорт 1019.4 1007.3 +22.5 +22.2
СВ 2.0
{2.4}
+22.2 +6.3 36 +23 +23 комфорт 1019.5 1007.4 +22.2 +22.2
СВ 1.9
{2.6}
+21.9 +6.6 37 +23 +23 комфорт 1019.5 1007.4 +22.2 +21.9
СВ 2.1
{3.0}
+21.8 +6.5 37 +23 +23 комфорт 1019.6 1007.5 +21.9 +21.8
СВ 1.9
{2.7}
+21.5 +6.5 38 +22 +22 комфорт 1019.6 1007.5 +21.8 +21.6
СВ 1.9
{2.9}
+21.4 +6.0 37 +22 +22 комфорт 1019.6 1007.5 +21.5 +21.4
С 2.2
{3.3}
+21.0 +6.5 39 +23 +23 комфорт 1019.7 1007.6 +21.4 +21.0
СВ 2.1
{3.0}
+20.8 +6.8 40 +22 +22 комфорт 1019.6 1007.5 +21.0 +20.8
С 2.3
{3.2}
+20.6 +6.9 41 +22 +22 комфорт 1019.6 1007.5 +20.8 +20.6
СВ 2.2
{3.0}
+20.5 +6.6 40 +22 +22 комфорт 1019.5 1007.4 +20.6 +20.5
С 1.9
{2.6}
+20.4 +7.1 42 +22 +22 комфорт 1019.5 1007.4 +20.5 +20.4
СВ 2.1
{2.8}
+20.1 +7.0 43 +22 +22 комфорт 1019.4 1007.3 +20.4 +20.1
СВ 2.1
{2.9}
+19.9 +7.1 43 +21 +21 комфорт 1019.4 1007.3 +20.1 +19.9
СВ 1.9
{2.6}
+19.7 +6.7 43 +21 +21 комфорт 1019.3 1007.2 +19.9 +19.7
СВ 2.1
{3.3}
+19.6 +7.1 44 +21 +21 комфорт 1019.2 1007.1 +19.8 +19.6
СВ 2.4
{3.3}
+19.5 +7.2 45 +21 +21 комфорт 1019.2 1007.1 +19.6 +19.5
СВ 2.6
{3.8}
+19.5 +6.8 44 +21 +21 комфорт 1019.2 1007.1 +19.5 +19.5
СВ 2.5
{3.6}
+19.3 +6.8 44 +20 +20 1019.1 1007.0 +19.5 +19.3
СВ 2.4
{3.6}
+19.2 +6.7 44 +20 +20 1019.1 1007.0 +19.3 +19.2
СВ 2.5
{4.1}
+19.2 +6.2 43 +20 +20 1019.1 1007.0 +19.2 +19.1
СВ 2.7
{4.5}
+19.1 +6.5 44 +20 +20 1019.0 1006.9 +19.2 +19.1
СВ 3.0
{5.0}
+18.9 +6.8 45 +20 +20 1018.9 1006.8 +19.0 +18.9
СВ 2.9
{4.5}
+18.7 +6.7 45 +19 +19 1018.9 1006.8 +18.9 +18.7
СВ 2.8
{4.7}
+18.7 +6.6 45 +19 +19 1018.8 1006.7 +18.7 +18.6
СВ 2.5
{3.8}
+18.4 +6.6 46 +19 +19 1018.7 1006.6 +18.7 +18.4
СВ 2.6
{4.1}
+18.3 +6.4 46 +19 +19 1018.6 1006.5 +18.4 +18.3
СВ 2.2
{3.9}
+18.2 +6.7 47 +19 +19 1018.5 1006.4 +18.3 +18.1
СВ 2.0
{3.2}
+18.0 +6.8 48 +19 +19 1018.5 1006.4 +18.2 +18.0
СВ 2.2
{3.4}
+17.8 +6.7 48 +18 +18 1018.4 1006.3 +18.0 +17.8
СВ 2.6
{4.4}
+17.7 +6.5 48 +18 +18 1018.3 1006.2 +17.8 +17.7
СВ 2.5
{3.9}
+17.6 +6.4 48 +18 +18 1018.2 1006.1 +17.8 +17.6
СВ 2.7
{4.4}
+17.5 +6.7 49 +18 +18 1018.1 1006.0 +17.6 +17.5
СВ 2.7
{4.5}
+17.3 +6.5 49 +17 +17 1018.1 1006.0 +17.5 +17.3
СВ 2.5
{4.1}
+17.5 +6.5 48 +18 +18 1018.0 1005.9 +17.6 +17.3
СВ 2.5
{4.0}
+17.2 +6.6 50 +17 +17 1018.0 1005.9 +17.5 +17.3
СВ 2.6
{3.9}
+17.0 +6.8 51 +17 +17 1018.0 1005.9 +17.2 +17.0
СВ 2.5
{4.4}
+16.6 +6.7 52 +17 +17 1018.0 1005.9 +17.0 +16.7
СВ 2.8
{4.5}
+16.5 +7.0 53 +16 +16 1018.0 1005.9 +16.6 +16.5
СВ 2.6
{4.0}
+16.3 +7.1 54 +16 +16 1018.0 1005.9 +16.5 +16.3
СВ 2.7
{4.0}
+16.3 +7.2 55 +16 +16 1018.0 1005.9 +16.3 +16.3
СВ 3.0
{4.7}
+16.3 +7.0 54 +16 +16 1018.0 1005.9 +16.4 +16.3
СВ 3.0
{4.2}
+16.3 +6.7 53 +16 +16 1018.0 1005.9 +16.3 +16.3
СВ 2.9
{4.4}
+16.2 +6.8 54 +16 +16 1018.0 1005.9 +16.3 +16.2
СВ 2.5
{4.0}
+16.1 +7.0 55 +16 +16 1018.0 1005.9 +16.2 +16.1
СВ 2.4
{3.9}
+16.0 +6.6 54 +16 +16 1018.0 1005.9 +16.1 +16.0
СВ 2.0
{3.2}
+15.8 +6.8 55 +16 +16 1018.0 1005.9 +16.0 +15.8
СВ 2.4
{4.2}
+15.6 +7.0 56 +15 +15 1018.0 1005.9 +15.8 +15.6
СВ 1.9
{3.3}
+15.5 +7.0 57 +16 +16 1018.0 1005.9 +15.7 +15.5
СВ 2.0
{3.1}
+15.0 +6.6 57 +15 +15 1018.2 1006.1 +15.1 +15.0
СВ 2.1
{3.4}
+14.9 +6.7 58 +15 +15 1018.3 1006.2 +15.0 +14.9
СВ 2.0
{3.0}
+14.9 +6.6 58 +15 +15 1018.3 1006.2 +14.9 +14.9
СВ 1.9
{2.8}
+14.8 +6.6 58 +15 +15 1018.3 1006.2 +14.9 +14.8
СВ 2.1
{3.7}
1.6 +14.6 +6.8 59 +14 +14 1018.4 1006.3 +14.8 +14.6
СВ 1.8
{2.9}
7.6 +14.3 +7.0 61 +14 +14 1018.4 1006.3 +14.6 +14.3
СВ 1.7
{2.9}
17.9 +14.3 +7.0 62 +14 +14 1018.5 1006.4 +14.3 +14.3
СВ 1.6
{2.5}
32.4 +14.6 +7.1 61 +15 +16 1018.6 1006.5 +14.6 +14.3
СВ 1.5
{2.5}
50.7 +14.7 +7.1 60 +15 +16 1018.6 1006.5 +14.7 +14.6
СВ 1.4
{2.3}
70.5 +14.9 +7.1 60 +15 +17 1018.6 1006.5 +14.9 +14.7
СВ 1.5
{2.4}
93.6 +15.3 +7.4 59 +16 +18 1018.6 1006.5 +15.3 +14.9
СВ 1.9
{3.0}
139.4 +16.4 +7.7 56 +17 +20 1018.8 1006.7 +16.3 +15.8
СВ 2.4
{3.6}
163.6 +16.8 +7.5 54 +17 +20 1018.9 1006.8 +16.8 +16.4
СВ 2.3
{4.2}
189.1 +17.4 +7.6 53 +18 +22 1018.9 1006.8 +17.4 +16.8
СВ 3.0
{4.4}
240.1 +18.6 +7.2 48 +19 +24 1018.9 1006.8 +18.6 +18.1
СВ 4.3
{6.6}
580.9 +25.9 +7.5 31 +26 +35 жарко 1018.6 1006.5 +25.9 +25.6
СВ 4.1
{6.7}
632.4 +26.8 +8.2 31 +27 +37 жарко 1018.3 1006.2 +26.8 +26.4
С 2.2
{3.8}
665.6 +30.0 +8.5 26 +29 +43 жарко 1010.4 998.4 +30.0 +29.6
С 2.7
{4.3}
673.7 +29.7 +7.9 25 +29 +42 жарко 1010.4 998.4 +30.0 +29.6
СВ 2.6
{4.6}
684.0 +30.0 +8.3 26 +29 +42 жарко 1010.3 998.3 +30.0 +29.4
СВ 2.0
{3.8}
688.8 +30.2 +7.8 25 +29 +43 жарко 1010.1 998.1 +30.2 +29.6
С 2.5
{4.7}
687.6 +30.3 +7.9 25 +29 +43 жарко 1010.0 998.0 +30.3 +29.9
СВ 2.0
{4.5}
694.2 +30.6 +7.1 23 +29 +43 жарко 1010.0 998.0 +30.6 +30.3
СВ 2.7
{5.1}
690.2 +30.3 +7.4 24 +29 +42 жарко 1010.0 998.0 +31.0 +30.3
В 1.9
{3.8}
688.9 +30.6 +6.6 22 +29 +43 жарко 1009.8 997.8 +30.8 +30.5
СВ 2.2
{4.8}
684.0 +31.0 +7.3 23 +30 +44 жарко 1009.7 997.7 +31.1 +30.6
С 2.7
{5.8}
673.8 +30.7 +6.8 22 +29 +42 жарко 1009.6 997.6 +30.9 +30.4
СЗ 1.9
{4.2}
652.2 +31.6 +6.1 20 +30 +44 жарко 1009.5 997.5 +31.6 +30.7
С 2.9
{4.9}
648.3 +31.3 +5.8 20 +29 +41 жарко 1009.4 997.4 +31.6 +31.2
С 2.5
{4.9}
635.5 +31.1 +5.8 20 +29 +42 жарко 1009.3 997.3 +31.4 +31.1
С 2.6
{4.4}
590.4 +31.3 +5.5 20 +29 +41 жарко 1009.2 997.2 +31.3 +31.1
СВ 1.3
{3.6}
585.2 +32.1 +6.3 20 +30 +43 жарко 1009.0 997.0 +32.2 +31.3
С 2.1
{4.3}
571.4 +31.6 +6.0 20 +30 +42 жарко 1009.0 997.0 +32.2 +31.6
С 1.8
{4.6}
529.0 +31.6 +5.9 20 +30 +41 жарко 1008.8 996.8 +31.9 +31.6
СЗ 1.9
{4.4}
510.0 +31.7 +5.9 20 +30 +41 жарко 1008.8 996.8 +31.8 +31.6
СЗ 2.2
{5.9}
478.4 +31.8 +7.0 21 +30 +40 жарко 1008.7 996.7 +32.1 +31.7
СЗ 2.9
{6.2}
462.3 +31.6 +5.9 20 +30 +39 жарко 1008.8 996.8 +31.9 +31.5
С 2.1
{4.4}
441.8 +31.4 +4.8 19 +29 +38 жарко 1008.7 996.7 +31.6 +31.3
С 1.7
{3.6}
406.9 +31.6 +5.5 19 +30 +39 жарко 1008.7 996.7 +31.8 +31.3
СЗ 2.1
{3.5}
388.9 +31.7 +4.8 18 +29 +37 жарко 1008.6 996.6 +31.8 +31.6
С 2.6
{4.7}
368.9 +31.3 +4.3 18 +29 +36 жарко 1008.7 996.7 +31.7 +31.3
С 2.2
{3.6}
318.1 +31.2 +5.0 19 +29 +35 жарко 1008.6 996.6 +31.6 +31.2
С 1.9
{3.7}
293.2 +31.3 +4.6 19 +29 +35 жарко 1008.6 996.6 +31.3 +31.1
СЗ 2.6
{4.5}
267.2 +31.3 +5.9 20 +29 +34 жарко 1008.5 996.5 +31.3 +31.2
СЗ 2.5
{3.7}
242.7 +31.2 +5.0 19 +29 +34 жарко 1008.5 996.5 +31.3 +31.0
Местоположение метеостанции Хива (Хорезмская область, Узбекистан): широта 41.40 долгота 60.38 высота над уровнем моря 0 м.
В архиве по умолчанию представлена погода в Хиве за последние 1-2 суток. Обновление информации о фактической погоде в базе происходит ежечасно! Архивные данные за месяц целиком и за предыдущие месяцы Вы можете получить, выбрав интересующий диапазон дат из раскрывающегося списка и нажав кнопку "Ввод!".
*Определитесь, кто Вы:
Внимание! Время в таблицах - местное (без учета летнего времени). Для получения всемирного времени необходимо вычесть поправку, которая равна 5 ч.
Смотрите также архив погоды на ближайших метеорологических станциях:
Партнеры нашего сайта:      
Пояснения к столбцам:
  • Ветер - указаны скорость ветра в м/с - средняя за 10 мин, порывы в срок и между сроками (в фигурных скобках) и направление, откуда дует ветер: С - северный,
  • СВ - северо-восточный, В - восточный, ЮВ - юго-восточный, Ю - южный, ЮЗ - юго-западный, З - западный, СЗ - северо-западный.
  • Видимость - горизонтальная дальность видимости в метрах или километрах. При видимости от 1 до 10 км при отсутствии осадков обычно наблюдается дымка, при ухудшении видимости до 1 км и менее - туман. В сухую погоду видимость может ухудшаться дымом, пылью или мглою.
  • Явления - указаны атмосферные явления, наблюдавшиеся в срок или в последний час перед сроком.
  • Солнечная радиация - мощность потока солнечного излучения на поверхность земли и предметов в Вт/м2.
  • T - Температура воздуха - температура, измеренная на высоте 2 м над землей.
  • Td - Температура точки росы - температура, при понижении до которой содержащийся в воздухе водяной пар достигнет насыщения.
  • f - Относительная влажность воздуха - влажноcть воздуха, измеренная на высоте 2 м над землей.
  • Te - Эффективная температура - температура, которую ощущает одетый по сезону человек в тени. Характеристика душности погоды. При расчете учитывается влияние влажности воздуха и скорости ветра на теплоощущения человека.
  • Tes - Эффективная температура на солнце - температура, которую ощущает человек, с поправкой на солнечный нагрев. Характеристика знойности погоды. Зависит от высоты солнца над горизонтом, облачности и скорости ветра. Ночью, в пасмурную погоду, а также при ветре 12 м/с и более поправка равна нулю.
  • P - Атмосферное давление - приведенное к уровню моря атмосферное давление.
  • Po - Атмосферное давление - измеренное на уровне метеостанции атмосферное давление.
  • Tmin - Минимальная температура - минимум температуры воздуха на высоте 2 м над землей.
  • Tmax - Максимальная температура - максимум температуры воздуха на высоте 2 м над землей.
  • R - Количество осадков - Количество выпавших осадков за период времени, мм. При наведении курсора мыши на число - период времени, за который выпало указанное количество осадков.